TimeEST,TemperatureF,Dew PointF,Humidity,Sea Level PressureIn,VisibilityMPH,Wind Direction,Wind SpeedMPH,Gust SpeedMPH,PrecipitationIn,Events,Conditions,WindDirDegrees,DateUTC
12:15 AM,32.0,30.2,93,30.28,10.0,North,-9999.0,-,N/A,,Clear,0,2012-12-23 05:15:00
12:35 AM,32.0,30.2,93,30.27,10.0,North,-9999.0,-,N/A,,Clear,0,2012-12-23 05:35:00
12:55 AM,32.0,30.2,93,30.27,10.0,North,-9999.0,-,N/A,,Clear,0,2012-12-23 05:55:00
1:15 AM,32.0,30.2,93,30.27,10.0,North,-9999.0,-,N/A,,Clear,0,2012-12-23 06:15:00
1:35 AM,32.0,30.2,93,30.27,10.0,North,-9999.0,-,N/A,,Clear,0,2012-12-23 06:35:00
1:55 AM,32.0,30.2,93,30.26,10.0,North,-9999.0,-,N/A,,Clear,0,2012-12-23 06:55:00
2:15 AM,32.0,32.0,100,30.26,10.0,North,-9999.0,-,N/A,,Clear,0,2012-12-23 07:15:00
2:35 AM,32.0,30.2,93,30.26,0.8,North,-9999.0,-,N/A,,Mist,0,2012-12-23 07:35:00
2:55 AM,30.2,30.2,100,30.26,0.2,North,-9999.0,-,N/A,Fog,Light Freezing Fog,0,2012-12-23 07:55:00
3:15 AM,30.2,30.2,100,30.26,1.2,North,-9999.0,-,N/A,,Mist,0,2012-12-23 08:15:00
3:35 AM,30.2,30.2,100,30.25,5.0,North,-9999.0,-,N/A,,Clear,0,2012-12-23 08:35:00
3:55 AM,30.2,30.2,100,30.25,1.2,North,-9999.0,-,N/A,,Mist,0,2012-12-23 08:55:00
4:15 AM,30.2,30.2,100,30.25,0.8,North,-9999.0,-,N/A,,Mist,0,2012-12-23 09:15:00
4:35 AM,30.2,30.2,100,30.25,7.0,North,-9999.0,-,N/A,,Clear,0,2012-12-23 09:35:00
4:55 AM,28.4,28.4,100,30.25,10.0,North,-9999.0,-,N/A,,Clear,0,2012-12-23 09:55:00
5:15 AM,30.2,28.4,93,30.25,10.0,North,-9999.0,-,N/A,,Clear,0,2012-12-23 10:15:00
5:35 AM,30.2,30.2,100,30.25,1.0,North,-9999.0,-,N/A,,Mist,0,2012-12-23 10:35:00
5:55 AM,30.2,30.2,100,30.26,10.0,North,-9999.0,-,N/A,,Clear,0,2012-12-23 10:55:00
6:15 AM,30.2,30.2,100,30.26,10.0,North,-9999.0,-,N/A,,Clear,0,2012-12-23 11:15:00
6:35 AM,30.2,30.2,100,30.26,10.0,North,-9999.0,-,N/A,,Clear,0,2012-12-23 11:35:00
6:55 AM,32.0,30.2,93,30.27,10.0,North,-9999.0,-,N/A,,Clear,0,2012-12-23 11:55:00
7:15 AM,32.0,30.2,93,30.28,10.0,North,-9999.0,-,N/A,,Clear,0,2012-12-23 12:15:00
7:35 AM,32.0,32.0,100,30.27,10.0,North,-9999.0,-,N/A,,Clear,0,2012-12-23 12:35:00
7:55 AM,32.0,32.0,100,30.28,10.0,North,-9999.0,-,N/A,,Clear,0,2012-12-23 12:55:00
8:15 AM,32.0,32.0,100,30.28,10.0,North,-9999.0,-,N/A,,Clear,0,2012-12-23 13:15:00
8:35 AM,35.6,35.6,100,30.28,10.0,North,-9999.0,-,N/A,,Clear,0,2012-12-23 13:35:00
8:55 AM,37.4,35.6,93,30.29,10.0,North,-9999.0,-,N/A,,Clear,0,2012-12-23 13:55:00
9:15 AM,41.0,37.4,87,30.29,10.0,North,-9999.0,-,N/A,,Clear,0,2012-12-23 14:15:00
9:35 AM,46.4,37.4,71,30.30,10.0,North,-9999.0,-,N/A,,Clear,0,2012-12-23 14:35:00
9:55 AM,51.8,33.8,50,30.30,10.0,North,-9999.0,-,N/A,,Clear,0,2012-12-23 14:55:00
10:15 AM,53.6,30.2,41,30.29,10.0,North,-9999.0,-,N/A,,Clear,0,2012-12-23 15:15:00
10:35 AM,53.6,26.6,35,30.29,10.0,North,-9999.0,-,N/A,,Clear,0,2012-12-23 15:35:00
10:55 AM,55.4,24.8,31,30.29,10.0,North,-9999.0,-,N/A,,Clear,0,2012-12-23 15:55:00
11:15 AM,57.2,24.8,29,30.28,10.0,North,-9999.0,-,N/A,,Clear,0,2012-12-23 16:15:00
11:35 AM,57.2,23.0,27,30.27,10.0,North,-9999.0,-,N/A,,Clear,0,2012-12-23 16:35:00
11:55 AM,59.0,24.8,27,30.26,10.0,North,-9999.0,-,N/A,,Clear,0,2012-12-23 16:55:00
12:15 PM,59.0,24.8,27,30.25,10.0,North,-9999.0,-,N/A,,Clear,0,2012-12-23 17:15:00
12:35 PM,60.8,26.6,27,30.24,10.0,North,-9999.0,-,N/A,,Clear,0,2012-12-23 17:35:00
12:55 PM,60.8,26.6,27,30.22,10.0,North,-9999.0,-,N/A,,Clear,0,2012-12-23 17:55:00
1:15 PM,60.8,24.8,25,30.22,10.0,North,-9999.0,-,N/A,,Clear,0,2012-12-23 18:15:00
1:35 PM,62.6,24.8,24,30.22,10.0,North,-9999.0,-,N/A,,Clear,0,2012-12-23 18:35:00
1:55 PM,62.6,23.0,22,30.21,10.0,North,-9999.0,-,N/A,,Clear,0,2012-12-23 18:55:00
2:15 PM,64.4,23.0,21,30.20,10.0,North,-9999.0,-,N/A,,Clear,0,2012-12-23 19:15:00
2:35 PM,64.4,23.0,21,30.20,10.0,North,-9999.0,-,N/A,,Clear,0,2012-12-23 19:35:00
2:55 PM,64.4,21.2,19,30.20,10.0,North,-9999.0,-,N/A,,Clear,0,2012-12-23 19:55:00
3:15 PM,66.2,19.4,17,30.20,10.0,North,-9999.0,-,N/A,,Clear,0,2012-12-23 20:15:00
3:35 PM,66.2,17.6,15,30.20,10.0,North,-9999.0,-,N/A,,Clear,0,2012-12-23 20:35:00
3:55 PM,64.4,21.2,19,30.19,10.0,North,-9999.0,-,N/A,,Clear,0,2012-12-23 20:55:00
4:15 PM,62.6,21.2,20,30.20,10.0,North,-9999.0,-,N/A,,Clear,0,2012-12-23 21:15:00
4:35 PM,62.6,23.0,22,30.20,10.0,North,-9999.0,-,N/A,,Clear,0,2012-12-23 21:35:00
4:55 PM,60.8,28.4,29,30.20,10.0,North,-9999.0,-,N/A,,Clear,0,2012-12-23 21:55:00
5:15 PM,60.8,30.2,31,30.19,10.0,North,-9999.0,-,N/A,,Clear,0,2012-12-23 22:15:00
5:35 PM,59.0,32.0,36,30.20,10.0,North,-9999.0,-,N/A,,Clear,0,2012-12-23 22:35:00
5:55 PM,55.4,33.8,44,30.20,7.0,North,-9999.0,-,N/A,,Clear,0,2012-12-23 22:55:00
6:15 PM,53.6,37.4,54,30.19,10.0,North,-9999.0,-,N/A,,Clear,0,2012-12-23 23:15:00
6:35 PM,51.8,37.4,58,30.20,10.0,North,-9999.0,-,N/A,,Clear,0,2012-12-23 23:35:00
6:55 PM,51.8,37.4,58,30.20,10.0,North,-9999.0,-,N/A,,Clear,0,2012-12-23 23:55:00
7:15 PM,50.0,37.4,62,30.19,10.0,North,-9999.0,-,N/A,,Clear,0,2012-12-24 00:15:00
7:35 PM,50.0,37.4,62,30.20,10.0,North,-9999.0,-,N/A,,Clear,0,2012-12-24 00:35:00
7:55 PM,50.0,37.4,62,30.19,4.0,North,-9999.0,-,N/A,,Haze,0,2012-12-24 00:55:00
8:15 PM,50.0,39.2,66,30.19,10.0,North,-9999.0,-,N/A,,Clear,0,2012-12-24 01:15:00
8:35 PM,50.0,39.2,66,30.19,10.0,North,-9999.0,-,N/A,,Clear,0,2012-12-24 01:35:00
8:55 PM,50.0,39.2,66,30.19,10.0,North,-9999.0,-,N/A,,Clear,0,2012-12-24 01:55:00
9:15 PM,50.0,41.0,71,30.20,10.0,North,-9999.0,-,N/A,,Clear,0,2012-12-24 02:15:00
9:55 PM,50.0,42.8,76,30.19,10.0,North,-9999.0,-,N/A,,Clear,0,2012-12-24 02:55:00
10:15 PM,50.0,42.8,76,30.19,10.0,North,-9999.0,-,N/A,,Clear,0,2012-12-24 03:15:00
10:35 PM,50.0,41.0,71,30.20,10.0,North,-9999.0,-,N/A,,Clear,0,2012-12-24 03:35:00
10:55 PM,50.0,41.0,71,30.19,10.0,North,-9999.0,-,N/A,,Clear,0,2012-12-24 03:55:00
11:15 PM,50.0,42.8,76,30.19,10.0,North,-9999.0,-,N/A,,Clear,0,2012-12-24 04:15:00
11:35 PM,50.0,42.8,76,30.18,10.0,North,-9999.0,-,N/A,,Clear,0,2012-12-24 04:35:00
11:55 PM,50.0,42.8,76,30.18,10.0,North,-9999.0,-,N/A,,Clear,0,2012-12-24 04:55:00